Location: New Town
(33.2710°N, 90.7534°W)
Time: 20:29:45
(UTC+00:00)

N. Korean satellite - Pass Details

Date: 20 April 2021
Orbit: 451 x 500 km, 97.2° (Epoch: 07 May)

Event Time Altitude Azimuth Distance (km) Brightness Sun altitude
Rises 10:26:28 0° 34° (NE) 2,540 11.3 -12.7°
Reaches altitude 10° 10:29:21 10° 60° (ENE) 1,643 10.8 -12.2°
Maximum altitude 10:31:17 14° 94° (E) 1,398 9.9 -11.8°
Drops below altitude 10° 10:33:12 10° 127° (SE) 1,621 9.6 -11.4°
Sets 10:36:00 0° 154° (SSE) 2,479 10.2 -10.9°
